Meteo Giornale » Osservazioni meteo Gran Bretagna » Farnborough

ore: 02:50 - Osservazioni Meteo Farnborough
Lat. 51° 17' N Lon. 0° 46' W Alt. 65 metri s.l.m.

coperto_pioggia Europe/London

15 °C

Pioggia Debole

Temp. 24 Ore

12 °C

17 °C

Sud-Est

9.3 Km/h

Dew point 13 °C

Umidità 87 %

Visibilità  10 Km

Il sole sorge alle ore 07:36

Il sole tramonta alle ore 17:59

Data e Ora Cielo e Fenomeni T °C DP °C Um. % Pres. hPa Vis. km Vento km/h
Oggi h: 02:50 coperto_pioggia Pioggia Debole 15 13 87 998 10 SE 9.3
Oggi h: 02:20 molto_nuvoloso Molto Nuvoloso 15 13 87 998 10 SE 9.3
Oggi h: 01:50 coperto Coperto 15 13 87 998 10 S/SE 11.1
Oggi h: 01:20 molto_nuvoloso Molto Nuvoloso 15 13 87 999 10 SE 13
Oggi h: 00:50 sereno Sereno 15 13 87 999 10 SE 11.1
Oggi h: 00:20 sereno Sereno 15 13 87 999 10 S/SE 14.8
Ieri h: 23:50 sereno Sereno 15 13 87 999 10 S/SE 13
Ieri h: 23:20 molto_nuvoloso Molto Nuvoloso 15 13 87 999 10 S/SE 16.7
Ieri h: 22:50 molto_nuvoloso Molto Nuvoloso 15 13 87 1000 10 S/SE 16.7
Ieri h: 22:20 molto_nuvoloso Molto Nuvoloso 15 13 87 1000 10 S 14.8
Ieri h: 21:50 nuvoloso Nuvoloso 15 13 87 999 10 S 14.8
Ieri h: 21:20 poco_nuvoloso Poco Nuvoloso 15 13 87 1000 10 S 16.7
Ieri h: 20:50 poco_nuvoloso Poco Nuvoloso 15 13 87 1000 10 S/SE 16.7
Ieri h: 20:20 poco_nuvoloso Poco Nuvoloso 15 13 87 1000 10 S/SE 14.8
Ieri h: 19:50 sereno Sereno 14 12 87 1000 10 S/SE 14.8
Ieri h: 19:20 sereno Sereno 14 12 87 1000 10 S/SE 13
Ieri h: 18:50 nuvoloso Nuvoloso 15 12 82 1000 10 S 16.7
Ieri h: 18:20 molto_nuvoloso Molto Nuvoloso 15 13 87 1001 10 S 14.8
Ieri h: 17:20 poco_nuvoloso Poco Nuvoloso 16 12 77 1000 10 S 16.7
Ieri h: 16:50 nuvoloso Nuvoloso 16 12 77 1001 10 S 20.3
Ieri h: 16:20 nuvoloso Nuvoloso 17 13 77 1001 10 S 22.2
Ieri h: 15:50 nuvoloso Nuvoloso 17 13 77 1001 10 S 27.8
Ieri h: 14:50 nuvoloso Nuvoloso 17 13 77 1001 10 S 25.9
Ieri h: 14:20 molto_nuvoloso Molto Nuvoloso 17 13 77 1001 10 S 27.8
Ieri h: 13:50 molto_nuvoloso Molto Nuvoloso 16 13 82 1001 10 S 27.8
Ieri h: 13:20 nuvoloso Nuvoloso 17 13 77 1001 10 S 29.6
Ieri h: 12:50 poco_nuvoloso Poco Nuvoloso 17 13 77 1001 10 S/SO 27.8
Ieri h: 12:20 poco_nuvoloso Poco Nuvoloso 17 13 77 1001 10 S 29.6
Ieri h: 11:50 nuvoloso Nuvoloso 17 13 77 1001 10 S 29.6
Ieri h: 11:20 molto_nuvoloso Molto Nuvoloso 16 13 82 1001 10 S 24
Ieri h: 10:50 molto_nuvoloso Molto Nuvoloso 16 13 82 1001 10 S 22.2
Ieri h: 10:20 molto_nuvoloso Molto Nuvoloso 15 13 87 1001 10 S 24
Ieri h: 09:50 molto_nuvoloso Molto Nuvoloso 15 13 87 1001 10 S 18.5
Ieri h: 09:20 molto_nuvoloso Molto Nuvoloso 15 13 87 1001 10 S 16.7
Ieri h: 08:50 molto_nuvoloso Molto Nuvoloso 14 12 87 1001 10 S 20.3
Ieri h: 08:20 coperto Coperto 14 12 87 1001 10 S 14.8
Ieri h: 07:50 molto_nuvoloso Molto Nuvoloso 14 12 87 1001 10 S/SE 16.7
Ieri h: 07:20 coperto_pioggia Pioggia Debole 13 12 93 1000 9 S/SE 16.7
Ieri h: 06:50 coperto_pioggia Pioggia Debole 13 12 93 1001 9 S/SE 18.5
Ieri h: 06:20 coperto_pioggia Pioggia Debole 13 12 93 1001 10 S 16.7
Ieri h: 04:50 coperto_pioggia Pioviggine 12 11 93 1001 7 S/SE 16.7
Ieri h: 04:20 coperto_pioggia Pioggia 12 11 93 1001 4 S/SE 16.7
Ieri h: 03:50 coperto_pioggia Pioggia Debole 12 10 87 1001 10 S/SE 16.7